CAPE
0 0 0 0 0 0 0 0 0 0 0 0 0 0 0 0 0 0 0 0 0 0 0 0 0 0 0 0 0 0 0 0 0 0 0 0 0 0 0 0 0 0 0 0 0 0 0
0 0 0 0 0 0 0 0 0 0 0 0 0 0 0 0 0 0 0 0 0 0 0 0 0 0 0 0 0 0 0 0 0 0 0 0 0 0 0 0 0 0 0 0 0 0 0
0 0 0 0 0 0 0 0 0 0 0 0 0 0 0 0 0 0 0 0 0 0 0 0 0 0 0 0 0 0 0 0 0 0 0 0 0 0 0 0 0 0 0 0 0 0 0
0 0 0 0 0 0 0 0 0 0 0 0 0 0 0 0 0 0 0 0 0 0 0 0 0 0 0 0 0 0 0 0 0 0 0 0 0 0 0 0 0 0 0 0 0 0 0
0 0 0 0 0 0 0 0 0 0 0 0 0 0 0 0 0 0 0 0 0 0 0 0 0 0 0 0 0 0 0 0 0 0 0 0 0 0 0 0 0 0 0 0 0 0 0
0 0 0 0 0 0 0 0 0 0 0 0 0 0 0 0 0 0 0 0 0 0 0 0 0 0 0 0 0 0 0 0 0 0 0 0 0 0 0 0 0 0 0 0 0 0 0
0 0 0 0 0 0 0 0 0 0 0 0 0 0 0 0 0 0 0 0 0 0 0 0 0 0 0 0 0 0 0 0 0 0 0 0 0 0 0 0 0 0 0 0 0 0 0
0 0 0 0 0 0 0 0 0 0 0 0 0 0 0 0 0 0 0 0 0 0 0 0 0 0 0 0 0 0 0 0 0 0 0 0 0 0 0 0 0 0 0 0 0 0 0
0 0 0 0 0 0 0 0 0 0 0 0 0 0 0 0 0 0 0 0 0 0 0 0 0 0 0 0 0 0 0 0 0 0 0 0 0 0 0 0 0 0 0 0 0 0 0
0 0 0 0 0 0 0 0 0 0 0 0 0 0 0 0 0 0 0 0 0 0 0 0 0 0 0 0 0 0 0 0 0 0 0 0 0 0 0 0 0 0 0 0 0 0 0
0 0 0 0 0 0 0 0 0 0 0 0 0 0 0 0 0 0 0 0 0 0 12 0 0 0 0 0 0 0 0 0 0 0 0 0 0 0 0 0 0 0 0 0 0 0 0
0 0 0 0 0 0 0 0 0 0 0 0 0 0 0 0 0 0 0 0 0 0 1 0 0 0 0 0 0 0 0 0 0 0 0 0 0 0 0 0 0 0 0 0 0 0 0
0 0 0 0 0 0 0 0 0 0 0 0 0 0 0 0 0 0 0 0 0 3 0 0 0 0 0 0 0 0 0 0 0 0 0 0 0 0 0 0 0 0 0 7 0 4 0
0 0 0 0 0 0 0 0 0 1 0 0 0 0 0 0 0 0 0 0 2 0 0 0 0 0 0 0 0 0 0 0 0 0 0 1 9 0 0 0 0 0 0 14 13 10 17
0 0 0 0 0 0 0 0 0 0 0 0 0 0 0 0 0 0 0 3 0 0 0 0 0 1 2 0 0 0 0 0 2 1 3 6 2 0 0 0 0 0 2 1 21 13 34
0 0 0 0 0 0 0 0 0 0 0 0 0 0 0 0 0 0 0 0 0 0 0 0 0 0 2 1 0 9 15 2 9 4 2 11 6 0 0 0 0 0 0 3 13 23 21
0 0 0 0 0 0 0 0 0 0 0 0 0 1 3 0 0 0 0 0 0 0 0 0 0 0 5 6 4 13 14 0 5 6 4 4 18 0 0 0 1 1 8 3 10 15 12
0 0 0 0 0 0 0 0 0 0 2 0 0 0 0 5 0 5 4 1 0 6 2 0 1 9 7 6 12 15 10 1 1 0 0 3 0 0 0 0 0 0 13 10 19 5 0
0 0 0 0 0 0 0 0 0 2 0 0 1 3 5 8 1 8 10 11 8 10 12 11 17 8 6 10 9 8 11 1 0 0 0 0 0 0 0 0 4 0 0 0 0 0 0
0 0 0 0 0 0 0 0 2 7 0 0 1 0 2 18 11 11 6 6 10 5 5 6 16 10 10 9 8 11 11 2 0 0 0 0 1 5 3 0 0 0 0 0 1 67 39
0 0 0 0 1 3 6 9 9 5 0 0 1 1 2 5 10 6 17 18 22 17 11 23 27 9 4 7 3 5 5 1 0 0 0 6 7 0 0 0 0 0 0 0 1 2 36
2 2 3 6 9 12 14 5 5 1 0 0 0 2 4 12 10 13 20 30 15 23 15 22 10 7 6 4 0 0 0 0 3 0 0 8 0 0 1 0 0 1 0 0 0 0 3
11 11 10 12 12 11 10 8 5 0 0 1 5 1 10 16 18 24 28 26 30 28 4 2 3 1 1 0 0 0 0 0 0 0 0 1 5 9 7 0 13 6 11 1 8 24 43
11 9 10 12 11 9 8 5 0 0 0 0 4 9 8 10 9 8 1 3 3 13 1 0 0 0 0 0 0 0 0 0 0 0 0 0 2 20 62 27 35 19 32 19 27 13 4
12 12 11 10 9 8 7 0 0 0 0 0 0 0 0 0 0 0 0 0 0 0 0 0 0 0 0 0 0 0 0 0 0 0 0 0 14 63 52 60 9 14 20 0 5 0 25
17 12 7 3 0 0 3 1 0 0 0 0 0 0 0 0 0 0 0 0 0 0 0 0 0 0 0 0 1 0 0 0 0 2 6 25 71 101 84 62 35 42 2 0 0 8 2
8 8 5 10 14 16 5 0 0 0 0 0 0 0 0 0 0 0 0 0 0 0 0 0 0 0 0 12 14 4 2 7 2 0 1 47 89 80 83 76 59 14 0 0 43 40 6
19 21 24 18 8 3 0 0 0 0 0 0 0 0 0 0 0 0 0 0 0 0 0 0 0 0 12 18 19 24 28 21 27 23 24 41 47 47 71 65 28 4 0 8 10 10 17
14 15 27 17 12 2 0 2 0 0 0 0 0 0 0 0 0 0 0 0 0 0 0 0 0 0 26 48 49 44 40 41 50 68 44 59 60 101 74 80 4 0 17 0 15 8 2
CIN
0 0 0 0 0 0 0 0 0 0 0 0 0 0 0 0 0 0 0 0 0 0 0 0 0 0 0 0 0 0 0 0 0 0 0 0 0 0 0 0 0 0 0 0 0 0 0
0 0 0 0 0 0 0 0 0 0 0 0 0 0 0 0 0 0 0 0 0 0 0 0 0 0 0 0 0 0 0 0 0 0 0 0 0 0 0 0 0 0 0 0 0 0 0
0 0 0 0 0 0 0 0 0 0 0 0 0 0 0 0 0 0 0 0 0 0 0 0 0 0 0 0 0 0 0 0 0 0 0 0 0 0 0 0 0 0 0 0 0 0 0
0 0 0 0 0 0 0 0 0 0 0 0 0 0 0 0 0 0 0 0 0 0 0 0 0 0 0 0 0 0 0 0 0 0 0 0 0 0 0 0 0 0 0 0 0 0 0
0 0 0 0 0 0 0 0 0 0 0 0 0 0 0 0 0 0 0 0 0 0 0 0 0 0 0 0 0 0 0 0 0 0 0 0 0 0 0 0 0 0 0 0 0 0 0
0 0 0 0 0 0 0 0 0 0 0 0 0 0 0 0 0 0 0 0 0 0 0 0 0 0 0 0 0 0 0 0 0 0 0 0 0 0 0 0 0 0 0 0 0 0 0
0 0 0 0 0 0 0 0 0 0 0 0 0 0 0 0 0 0 0 0 0 0 0 0 0 0 0 0 0 0 0 0 0 0 0 0 0 0 0 0 0 0 0 0 0 0 0
0 0 0 0 0 0 0 0 0 0 0 0 0 0 0 0 0 0 0 0 0 0 0 0 0 0 0 0 0 0 0 0 0 0 0 0 0 0 0 0 0 0 0 0 0 0 0
0 0 0 0 0 0 0 0 0 0 0 0 0 0 0 0 0 0 0 0 0 0 0 0 0 0 0 0 0 0 0 0 0 0 0 0 0 0 0 0 0 0 0 0 0 0 0
0 0 0 0 0 0 0 0 0 0 0 0 0 0 0 0 0 0 0 0 0 0 0 0 0 0 0 0 0 0 0 0 0 0 0 0 0 0 0 0 0 0 0 0 0 0 0
0 0 0 0 0 0 0 0 0 0 0 0 0 0 0 0 0 0 0 0 0 0 0 0 0 0 0 0 0 0 0 0 0 0 0 0 0 0 0 0 0 0 0 0 0 0 0
0 0 0 0 0 0 0 0 0 0 0 0 0 0 0 0 0 0 0 0 0 0 0 0 0 0 0 0 0 0 0 0 0 0 0 0 0 0 0 0 0 0 0 0 0 0 0
0 0 0 0 0 0 0 0 0 0 0 0 0 0 0 0 0 0 0 0 0 0 0 0 0 0 0 0 0 0 0 0 0 0 0 0 0 0 0 0 0 0 0 0 0 0 0
0 0 0 0 0 0 0 0 0 0 0 0 0 0 0 0 0 0 0 0 0 0 0 0 0 0 0 0 0 0 0 0 -2 0 0 0 0 0 0 0 0 0 0 0 0 0 0
0 0 0 0 0 0 0 0 0 0 0 0 0 0 0 0 0 0 0 0 0 0 0 0 0 0 0 0 0 0 0 0 0 0 0 0 0 0 0 0 0 0 0 0 0 0 0
0 0 0 0 0 0 0 0 0 0 0 0 0 0 0 0 0 0 0 0 0 0 0 0 0 0 0 -1 0 0 0 -1 0 0 0 0 0 0 0 0 0 0 0 -1 0 0 0
0 0 0 0 0 0 0 0 0 0 0 0 0 0 0 0 0 0 0 0 0 0 0 0 0 0 0 0 0 0 0 0 0 0 0 0 0 0 0 0 0 0 0 -1 -1 0 0
0 0 0 0 0 0 0 0 0 0 0 0 0 0 0 0 0 0 0 0 0 0 0 0 0 0 0 0 0 0 0 0 0 0 0 0 0 0 0 0 0 0 0 -3 -4 0 0
0 0 0 0 0 0 0 0 0 0 0 0 0 0 0 -2 0 0 0 0 0 0 0 0 0 0 0 0 0 0 0 0 0 0 0 0 0 0 0 0 0 0 0 0 0 0 0
0 0 0 0 0 0 0 0 0 0 0 0 0 0 0 0 0 0 0 0 0 0 0 0 0 0 0 0 0 0 0 0 0 0 0 -3 0 0 0 0 0 0 0 0 0 0 0
0 0 0 0 0 0 0 0 0 0 0 0 0 0 0 0 0 0 0 0 0 0 0 0 0 0 0 0 0 0 0 0 0 0 0 0 0 0 0 0 0 0 0 0 0 0 0
0 0 0 0 0 0 0 0 0 0 0 0 0 0 0 0 0 0 0 0 0 0 0 0 0 0 0 0 0 -1 0 0 0 0 0 0 0 0 0 0 0 0 0 0 0 0 -1
0 0 0 0 0 0 0 0 0 0 0 0 0 0 0 0 0 0 0 0 0 0 0 0 -2 0 0 0 0 0 0 0 0 0 0 0 0 0 0 0 0 0 -4 0 0 0 0
0 0 0 0 0 0 0 0 0 0 0 0 0 0 0 0 0 0 0 0 0 0 0 0 0 0 0 0 0 0 0 0 0 0 0 0 0 0 0 0 0 -1 -1 -2 0 -1 -1
0 0 0 0 0 0 0 0 0 0 0 0 0 0 0 0 0 0 0 0 0 0 0 0 0 0 0 0 0 0 0 0 0 0 0 0 0 0 0 0 0 0 -10 0 0 0 -1
0 0 0 0 0 0 0 0 0 0 0 0 0 0 0 0 0 0 0 0 0 0 0 0 0 0 0 0 0 0 0 0 0 0 0 0 0 0 0 0 0 -1 -2 0 0 0 0
0 0 0 0 0 0 0 0 0 0 0 0 0 0 0 0 0 0 0 0 0 0 0 0 0 0 0 0 0 0 0 -1 0 0 0 0 0 0 0 0 0 0 0 0 0 0 0
0 0 0 0 0 0 0 0 0 0 0 0 0 0 0 0 0 0 0 0 0 0 0 0 0 0 0 0 0 0 0 0 0 0 0 0 0 0 0 0 0 -1 0 0 0 0 0
0 0 0 0 0 0 0 0 0 0 0 0 0 0 0 0 0 0 0 0 0 0 0 0 0 0 0 0 0 0 0 0 0 0 0 0 -1 0 0 0 -4 0 -3 0 0 0 0
Wind_Speed
11 11 11 9 10 9 9 9 5 7 5 9 9 9 11 13 14 15 19 22 22 22 20 21 18 15 9 9 6 7 3 7 7 6 5 6 8 6 11 7 8 16 16 15 15 15 17
12 11 11 9 10 9 10 10 7 7 7 8 9 9 10 12 13 14 18 22 23 22 17 19 14 12 7 12 5 2 4 4 8 8 7 8 5 5 9 12 11 6 12 16 17 19 20
12 12 11 10 10 10 10 10 8 8 8 8 8 9 9 13 14 16 18 21 24 23 19 15 8 6 9 11 3 5 5 5 5 8 9 7 6 8 1 9 5 11 16 16 18 19 16
13 14 12 11 11 10 10 9 10 9 8 9 9 9 9 13 14 16 19 22 24 23 16 7 3 6 8 2 6 2 4 3 1 6 8 5 5 10 10 5 12 13 14 16 8 5 6
15 14 12 12 12 11 10 9 10 9 8 8 8 8 9 11 15 17 20 26 24 15 11 4 6 4 7 3 2 6 6 4 8 2 3 3 6 10 5 13 14 13 16 20 17 10 12
16 14 13 13 12 11 10 9 10 10 8 9 6 7 9 11 13 16 22 25 15 13 6 6 5 9 5 2 14 15 18 11 5 3 6 9 8 11 12 14 17 17 15 15 16 8 12
16 15 15 14 12 12 12 10 10 9 8 9 6 7 8 11 13 15 15 9 8 2 10 10 22 17 21 13 13 2 5 6 14 15 17 11 12 17 18 18 20 21 20 22 20 18 19
16 16 15 14 14 13 12 11 10 9 9 10 8 8 7 9 11 14 8 6 4 6 19 14 12 10 11 6 5 4 3 5 6 15 15 14 18 19 19 17 19 21 22 21 19 17 12
17 17 15 15 15 14 13 13 11 11 11 10 10 7 6 8 10 5 5 6 2 2 9 7 2 5 3 5 4 5 3 1 4 7 13 17 12 2 5 12 20 19 20 19 19 17 16
18 16 15 16 16 14 13 13 11 12 12 11 9 7 4 7 5 2 2 3 3 4 6 2 1 2 2 5 2 3 4 4 4 5 4 10 10 11 13 16 12 17 13 15 16 16 18
18 17 17 17 16 14 14 14 13 13 12 11 10 9 6 3 2 3 4 4 6 5 7 3 4 4 3 4 9 4 2 5 11 10 6 5 7 10 11 11 8 14 12 11 12 13 19
17 17 17 17 17 16 16 15 14 13 12 12 12 11 9 3 2 2 4 2 3 0 8 3 1 2 3 3 7 7 5 6 9 12 15 16 8 9 11 8 7 8 13 16 15 11 20
18 18 18 17 17 14 16 16 15 14 13 13 14 14 9 3 2 1 4 2 2 6 1 4 2 1 8 15 12 9 9 7 6 8 13 12 16 13 6 11 6 7 6 5 6 8 15
20 19 18 18 18 17 18 16 14 14 13 15 15 13 6 1 3 4 2 2 7 6 9 5 3 10 13 9 1 5 6 9 9 10 11 13 13 3 6 4 5 4 7 4 7 11 15
20 19 18 18 19 19 19 17 15 15 14 16 17 4 3 3 3 1 4 5 6 6 1 3 7 14 3 3 4 6 3 5 7 11 4 6 6 1 6 4 4 3 6 10 7 12 15
21 20 19 20 20 19 20 20 19 17 23 26 6 5 2 1 2 4 2 5 5 3 3 3 5 3 5 3 4 4 3 3 4 7 7 3 10 1 3 7 7 6 2 4 4 6 9
21 21 21 21 20 21 21 20 20 23 30 23 4 5 2 3 4 2 4 6 4 2 3 4 5 7 5 3 6 7 3 4 3 5 6 1 5 6 12 5 10 6 10 11 14 14 13
20 20 19 19 19 20 19 18 19 23 22 8 3 3 1 2 3 3 4 6 3 7 4 6 3 6 3 4 5 6 1 6 4 3 2 4 7 15 22 24 22 16 12 3 3 9 16
19 18 17 17 19 19 17 17 22 32 26 7 5 4 1 1 4 4 2 3 5 6 6 5 5 0 1 5 4 3 2 7 6 4 4 4 5 14 16 9 7 7 18 19 21 18 23
17 16 13 16 16 16 18 23 29 24 13 6 5 5 0 2 1 4 5 5 6 1 3 3 3 4 5 5 4 2 3 5 2 3 2 1 8 12 14 21 18 25 23 21 20 17 21
10 9 11 16 20 22 24 25 23 17 9 5 2 2 3 6 6 4 10 7 6 5 2 6 5 8 5 4 4 9 7 4 6 5 5 6 11 14 17 21 24 26 28 27 25 25 24
22 24 25 22 23 23 22 21 18 15 7 5 5 3 1 3 8 10 10 8 10 5 7 6 8 9 7 7 7 5 7 7 9 6 8 6 10 11 17 22 22 25 28 27 25 22 20
25 24 24 22 23 23 21 18 17 11 6 4 2 2 1 4 5 5 5 7 7 8 1 5 9 8 8 9 5 6 9 11 13 13 13 13 11 8 17 18 18 17 14 10 14 17 21
26 24 24 22 22 22 20 18 15 12 7 4 2 3 3 4 4 4 6 7 10 11 7 8 8 7 3 1 6 11 14 17 19 20 15 12 12 11 12 16 19 14 15 6 12 20 22
26 24 25 22 22 21 19 17 14 10 8 4 3 3 3 4 7 6 9 7 8 7 6 7 5 3 3 2 4 6 6 9 10 15 14 17 15 9 8 12 19 19 3 10 18 30 6
25 25 24 21 20 18 17 15 13 13 12 5 4 1 2 5 8 5 10 10 7 7 6 5 5 4 4 3 3 5 5 4 5 4 10 11 12 7 11 15 18 10 9 19 24 16 12
23 22 21 22 20 19 17 15 13 11 8 5 4 4 1 3 5 6 7 9 5 5 3 5 7 7 5 4 6 7 9 2 7 8 8 8 10 13 13 17 13 11 16 16 8 9 25
20 19 19 20 19 16 16 15 14 12 8 3 5 6 2 2 6 4 3 4 5 5 5 6 5 4 4 6 5 5 7 5 6 12 10 12 9 11 14 10 10 9 20 7 11 24 24
18 18 19 19 18 16 15 14 13 12 10 4 4 3 4 3 4 0 4 5 5 3 4 8 2 5 4 5 3 3 5 5 10 11 9 10 8 9 8 10 19 21 5 16 20 21 23
Wind_Direction
210 221 223 222 240 241 256 263 273 278 297 316 320 325 326 327 326 324 319 320 320 321 327 322 325 323 311 288 269 116 191 184 227 204 211 202 216 224 243 247 256 245 260 271 276 279 277
213 221 227 222 239 245 259 268 272 276 284 300 317 326 325 320 321 323 316 315 314 317 324 317 321 320 290 284 101 115 321 258 232 229 216 210 231 229 277 266 260 335 280 281 283 277 278
215 220 223 228 236 238 245 262 268 269 279 290 302 314 317 316 321 325 316 312 309 313 316 315 323 318 272 279 12 325 297 284 272 255 242 228 230 218 258 257 257 270 276 276 263 265 278
216 221 219 226 234 239 240 250 262 265 269 278 295 308 323 321 319 322 315 308 306 309 307 300 288 294 264 110 331 17 329 193 186 271 271 278 237 256 250 283 249 264 271 270 258 275 269
219 221 221 226 228 230 234 240 253 259 261 272 298 311 319 315 320 319 313 305 304 302 283 236 275 293 284 158 44 359 1 357 309 212 184 168 211 249 221 248 263 233 276 275 286 284 280
221 220 221 226 230 231 230 235 245 253 257 275 291 295 304 311 318 319 317 300 295 290 258 193 249 270 212 86 333 302 281 268 284 261 213 217 225 241 229 246 254 276 264 261 277 266 273
218 219 220 220 223 225 227 231 238 245 245 257 266 274 293 309 320 323 323 319 351 290 343 283 295 286 295 320 292 265 313 285 241 257 259 232 249 236 250 253 268 282 276 276 278 282 281
214 217 218 216 221 225 224 226 229 234 238 246 235 251 279 307 321 316 300 35 52 331 299 289 268 269 278 300 298 94 174 191 199 232 226 238 242 257 270 272 265 265 270 271 278 275 285
207 215 214 218 218 221 222 227 221 224 224 230 231 227 262 298 319 280 9 53 1 231 279 316 290 280 308 211 323 347 233 257 266 251 228 242 260 161 286 281 248 255 260 271 275 295 280
207 209 210 217 218 220 220 225 222 227 220 215 219 209 224 298 283 334 46 40 35 202 280 239 118 118 223 275 225 346 251 298 235 286 257 263 275 271 264 256 260 271 279 270 273 284 284
209 207 208 213 215 213 214 220 219 222 218 208 200 189 182 228 316 259 47 24 131 232 299 90 114 76 298 306 321 104 235 226 277 270 243 247 275 277 267 275 265 273 319 284 291 281 287
209 210 209 212 213 213 212 216 217 213 211 205 185 173 161 188 230 237 318 296 193 175 243 173 101 343 313 6 331 314 293 221 284 283 265 270 307 274 291 306 286 309 284 286 266 260 257
208 212 207 209 220 212 225 215 212 215 206 197 176 166 171 176 199 152 259 190 249 198 358 149 152 339 313 298 300 296 299 312 306 300 264 279 278 285 350 272 151 353 3 285 262 231 254
207 209 210 216 211 213 218 214 205 203 201 189 164 153 204 182 182 210 162 99 211 229 237 109 282 286 288 328 335 286 268 244 70 323 288 286 283 357 39 45 12 76 175 255 274 265 278
208 214 214 215 217 211 210 206 203 198 182 154 125 142 164 180 194 257 111 202 225 211 252 279 294 284 301 176 308 307 343 2 28 24 313 307 238 32 83 29 13 105 237 252 267 255 265
212 211 216 217 218 213 211 204 199 188 160 146 144 143 158 101 125 84 140 233 249 240 178 205 267 210 260 290 300 265 245 346 96 24 346 60 289 250 83 332 178 213 324 276 220 266 249
218 216 218 220 217 215 210 202 198 179 163 150 96 143 134 166 95 106 203 218 236 212 236 260 257 245 234 249 244 256 175 51 23 62 53 316 241 290 311 274 330 269 263 251 269 257 264
219 220 218 220 222 216 213 205 193 162 143 102 112 120 226 221 136 184 190 187 199 195 211 224 264 249 221 185 234 252 221 58 88 10 45 40 304 289 292 285 267 269 303 70 287 305 290
213 218 218 225 223 213 206 191 161 154 150 121 100 107 329 299 189 190 176 227 200 197 208 185 200 289 109 190 240 261 95 125 88 50 55 2 295 310 307 162 123 306 312 298 293 283 274
212 214 218 217 213 203 171 162 150 149 113 93 126 127 30 231 266 171 155 194 183 105 112 131 139 169 180 214 221 228 188 179 290 322 109 195 249 247 268 289 305 290 289 286 279 276 282
182 172 165 135 132 130 129 132 129 116 85 97 44 142 161 174 207 195 171 184 150 163 172 175 192 224 196 220 255 252 261 257 256 229 230 230 262 268 274 282 287 286 288 283 278 279 278
118 120 118 119 114 118 124 118 111 95 79 77 123 145 131 128 152 171 178 189 175 133 172 183 217 226 211 208 216 252 253 264 263 223 239 224 268 277 279 278 276 283 283 285 286 281 285
109 109 110 118 121 123 121 116 103 80 52 93 95 44 171 131 147 172 171 154 179 161 190 214 201 178 208 228 245 270 269 263 257 257 261 258 255 255 275 284 291 277 274 289 308 311 309
109 113 113 111 110 110 113 104 93 78 80 106 98 133 139 144 181 188 175 176 185 194 174 162 171 199 113 168 264 254 253 254 253 253 247 245 234 255 265 281 271 285 331 346 305 304 319
117 115 111 113 110 108 107 105 101 103 117 123 147 188 157 142 182 167 171 155 151 160 174 186 175 77 146 256 267 279 245 241 234 233 227 219 238 257 261 278 297 291 84 342 324 309 9
117 114 113 115 118 122 126 125 118 114 118 102 76 20 94 135 192 163 167 182 185 202 181 179 140 139 178 217 213 243 253 302 244 245 203 227 217 231 271 282 284 306 10 343 321 273 1
120 126 126 124 119 119 121 117 105 97 85 100 84 1 122 124 147 161 185 197 180 178 195 152 163 182 212 200 226 249 249 182 256 246 266 231 232 258 265 271 283 295 359 335 276 344 326
123 126 129 124 122 125 120 112 108 98 82 82 83 27 360 114 129 195 177 172 155 198 190 125 174 196 186 218 243 237 254 251 256 262 280 280 280 274 266 259 272 1 344 341 308 299 302
131 131 135 130 131 129 123 114 103 87 73 58 98 53 21 54 61 183 249 268 260 244 197 177 276 158 188 229 217 279 252 252 267 274 271 261 250 296 304 302 320 317 314 296 291 285 290